This is the latest recevied weather packets stored in our database for station/object IW9DKU-3. If no packets are shown the sender has not sent any weather packets the latest 10 day(s).
| Time | Temp. | Humidity | Pressure | Rain* | Wind** | Luminosity | Snow |
|---|---|---|---|---|---|---|---|
| 1778034654 | 20° C | 61% | 1022.8 hPa | - | - | - | - |
| 1778033450 | 20° C | 61% | 1022.8 hPa | - | - | - | - |
| 1778032247 | 20° C | 61% | 1022.8 hPa | - | - | - | - |
| 1778031043 | 20° C | 60% | 1023.3 hPa | - | - | - | - |
| 1778029839 | 20° C | 60% | 1023.2 hPa | - | - | - | - |
| 1778028635 | 20° C | 60% | 1023.4 hPa | - | - | - | - |
| 1778027431 | 20° C | 60% | 1023.5 hPa | - | - | - | - |
| 1778026228 | 20° C | 60% | 1023.8 hPa | - | - | - | - |
| 1778025024 | 20° C | 60% | 1024.1 hPa | - | - | - | - |
| 1778022616 | 20° C | 57% | 1024.1 hPa | - | - | - | - |
| 1778021413 | 20° C | 55% | 1024.2 hPa | - | - | - | - |
| 1778020209 | 20° C | 49% | 1024.2 hPa | - | - | - | - |
| 1778019005 | 20° C | 54% | 1024.4 hPa | - | - | - | - |
| 1778017801 | 20.56° C | 61% | 1024.6 hPa | - | - | - | - |
| 1778016598 | 20.56° C | 61% | 1024.8 hPa | - | - | - | - |
| 1778015394 | 20.56° C | 61% | 1024.9 hPa | - | - | - | - |
| 1778014190 | 20.56° C | 61% | 1025 hPa | - | - | - | - |
| 1778012986 | 20.56° C | 61% | 1025.1 hPa | - | - | - | - |
| 1778011783 | 20.56° C | 61% | 1025.3 hPa | - | - | - | - |
| 1778009673 | 21.11° C | 60% | 1025 hPa | - | - | - | - |
| 1778009375 | 21.11° C | 60% | 1025 hPa | - | - | - | - |
| 1778008171 | 21.11° C | 60% | 1024.7 hPa | - | - | - | - |
| 1778006967 | 21.11° C | 60% | 1024.7 hPa | - | - | - | - |
| 1778005764 | 21.11° C | 60% | 1024.6 hPa | - | - | - | - |
| 1778004560 | 21.67° C | 59% | 1024.5 hPa | - | - | - | - |
* Rain since midnight (hover to see other rain measurements)
** Current wind speed in m/s (hover to see current wind gust speed)